Regional Weather Roundup
Issued by NWS Upton, NY

Current Version | Previous Version | Text Only | Print | Product List | Glossary On
Versions: 1 2 3 4 5 6 7 8 9 10 11 12 13 14 15 16 17 18 19 20 21 22 23 24 25 26 27
000
ASUS41 KOKX 030408
RWROKX

REGIONAL WEATHER ROUNDUP
NATIONAL WEATHER SERVICE NEW YORK NY
1100 PM EST FRI DEC 02 2016

NOTE: "FAIR" INDICATES FEW OR NO CLOUDS BELOW 12,000 FEET WITH NO
SIGNIFICANT WEATHER AND/OR OBSTRUCTIONS TO VISIBILITY.

NYZ071-072-176-178-NJZ106-104-030500-
NEW YORK CITY METRO AREA

CITY           SKY/WX    TMP DP  RH WIND       PRES   REMARKS
Central Park   CLOUDY    44  29  55 VRB5      29.93S
Wall St Helipt CLOUDY    45  32  61 W14       29.93R
Bronx Bot Gard NOT AVBL
LaGuardia APRT CLOUDY    46  29  51 W17G25    29.91R
Kennedy INTL   MOCLDY    45  29  53 W21       29.92S
Breezy Point     N/A     43 N/A N/A W16G25      N/A
Newark/Liberty MOCLDY    44  29  55 W15G24    29.93R
Teterboro      CLOUDY    45  29  53 W9G23     29.91R
$$

NYZ177-179-078>081-030500-
LONG ISLAND NEW YORK

CITY           SKY/WX    TMP DP  RH WIND       PRES   REMARKS
Jones Beach      N/A     43 N/A N/A W17G24      N/A
Matinecock PT    N/A     46 N/A N/A W21         N/A
Farmingdale    MOCLDY    45  29  53 W15G23    29.90R
MacArthur/ISP  NOT AVBL
Shirley        NOT AVBL
Westhampton    PTCLDY    43  28  55 W15       29.87S
Southampton    NOT AVBL
Bridgehampton  NOT AVBL
East Hampton     N/A     44  29  55 W15G24    29.84R
Montauk          N/A     46  32  58 W20G31    29.84R
$$

NYZ052-065-067-030500-
HUDSON VALLEY

CITY           SKY/WX    TMP DP  RH WIND       PRES   REMARKS
White Plains   NOT AVBL
Newburgh       MOCLDY    39  32  75 W21G29    29.88S WCI  29
Montgomery     CLOUDY    42  29  59 W10       29.87S
Poughkeepsie   CLOUDY    41  29  62 W14       29.86S
Albany         CLOUDY    38  30  73 W12G21    29.84R WCI  30
$$

NJZ001-105-106-008-010-013-015-019>022-104-030500-
NEW JERSEY

CITY           SKY/WX    TMP DP  RH WIND       PRES   REMARKS
Newark/Liberty MOCLDY    44  29  55 W15G24    29.93R
Teterboro      CLOUDY    45  29  53 W9G23     29.91R
Caldwell       CLOUDY    44  29  55 W9        29.92S
Somerville     CLOUDY    43  30  60 W6        29.94R
Linden         CLOUDY   N/A N/A N/A W12G18    29.93S
Sussex         CLOUDY    42  30  62 VRB6      29.90S
Andover          N/A     41  29  62 VRB3      29.92R
Trenton        CLOUDY    43  28  55 W9        29.96S
Millville      MOCLDY    42  31  64 W14       30.04R
Atlantic City  MOCLDY    43  28  55 W12       30.02R
Wrightstown    CLOUDY    43  29  56 W17       29.96R
Toms River     NOT AVBL
Belmar         NOT AVBL
$$

PAZ047>061-062-071-030500-
EASTERN PENNSYLVANIA

CITY           SKY/WX    TMP DP  RH WIND       PRES   REMARKS
Philadelphia   MOCLDY    43  29  57 W18       30.02S
Allentown      MOCLDY    42  29  59 W16G23    29.96S
Scranton       CLOUDY    39  32  76 SW12      29.92S WCI  32
$$

CTZ002-004>006-009-010-012-RIZ004-006-007-MAZ004-011-015-030500-
SOUTHERN NEW ENGLAND
 IN CT

CITY           SKY/WX    TMP DP  RH WIND       PRES   REMARKS
Bradley INTL   CLOUDY    41  29  62 SW10      29.81R
Hartford       CLOUDY    42  29  59 W9        29.83R
Danbury        MOCLDY    40  28  62 W12G22    29.86S WCI  33
Wtrbury/Oxford CLOUDY    39  27  60 W8        29.84S WCI  34
Bridgeport     MOCLDY    44  29  55 W10G21    29.87R
Meriden        CLOUDY    43  29  57 W8        29.84R
New Haven      MOCLDY    43  30  60 W10G18    29.85R
Chester          N/A     41  28  60 W8        29.82R
Groton         NOT AVBL
Wilimantic     MOCLDY    41  31  67 W6        29.81R

 IN RI

CITY           SKY/WX    TMP DP  RH WIND       PRES   REMARKS
Providence     PTCLDY    41  29  62 W8        29.78S
Block Island   CLEAR     44  32  62 W16G29    29.82R
Westerly       CLEAR     42  28  57 W5        29.82S
 IN MA

CITY           SKY/WX    TMP DP  RH WIND       PRES   REMARKS
Boston         MOCLDY    43  30  60 W14G22    29.73S
Worcester      PTCLDY    36  27  69 W9        29.74R WCI  29
Westfield      CLOUDY    42  29  59 W14G21    29.80R
Provincetown   CLEAR     44  32  62 W22G28    29.73S
Nantucket      CLOUDY    45  32  60 W12       29.76S
$$

ANZ330-335-338-340-345-350-353-355-030500-
COASTAL MARINE OBSERVATIONS


STATION/POSITION TIME  SKY/WX   TEMP    WIND        PRES    VSBY  WAVE
                                AIR SEA DIR/SP/G                  HT/PER
                 (UTC)          (F)     (DEG/KT/KT) (MB)    (MI)  (FT/S)
NY HARB ENTRANCE 0350            46 54  270/ 27/ 29 1012.2          5/ 4
20 S FIRE ISLAND 0250            48 54  280/ 27/ 31 1011.6          7/ 5
GREAT SOUTH BAY  0315            45 45                N/A
23 SSW MONTAUK P 0250            48 56  270/ 17/ 21 1010.5          6/ 6
15 E BARNEGAT LI 0330               54                N/A           4/ 5
HUDSON CANYON    0250            49 59              1012.3          9/ 7
KINGS POINT      0342            45 49              1012.2
EXECUTION ROCKS  0345            46     260/ 12/ 17   N/A
CENTRAL LI SOUND 0315            46 51  280/ 19/ 25   N/A           3/ 5
EASTERN LI SOUND NOT AVBL
ROBBINS REEF     0342            44     270/ 21/ 28 1013.1
$$


>>>>>>>>>>>>>>>>>>>>>>>>>>>> KEY <<<<<<<<<<<<<<<<<<<<<<<<<<<
>                                                          <
>     SKY/WX - Sky Condition/Present Weather               <
>     TMP    - Temperature in Fahrenheit                   <
>     DP     - Dew Point in Fahrenheit                     <
>     RH     - Relative Humidity in Percent                <
>     WIND   - Direction (from) and Speed in MPH           <
>     PRES   - Mean Sea Level Pressure (inches of Hg)      <
>     WCI    - Wind Chill Index                            <
>     VSB    - VISIBILITY IN MILES                         <
>     HX     - HEAT INDEX                                  <
>     TC     - TEMPERATURE IN CELSIUS                      <
>     VRB    - VARIABLE WIND DIRECTION                     <
>                                                          <
>>>>>>>>>>>>>>>>>>>>>>>>>>>> KEY <<<<<<<<<<<<<<<<<<<<<<<<<<<




USA.gov is the U.S. government's official web portal to all federal, state and local government web resources and services.